Topeka Forbes, KS

12:04 AM CST on December 15, 2019 (GMT -0600)
Forbes

Weather History for KFOE - October, 2019

Change the Weather History Date:

Saturday, October 19, 2019

  Actual Average Record
Temperature  
Mean Temperature 56 °F -  
Max Temperature 69 °F 65 °F 88 °F (1963)
Min Temperature 45 °F 39 °F 20 °F (1972)
Degree Days  
Heating Degree Days 8    
Growing Degree Days 6 (Base 50)    
Moisture  
Dew Point 49 °F    
Average Humidity 76    
Maximum Humidity 93    
Minimum Humidity 45    
Precipitation  
Precipitation 0.09 in - - ()
Sea Level Pressure  
Sea Level Pressure 29.77 in    
Wind  
Wind Speed 6 mph (West)    
Max Wind Speed 12 mph    
Max Gust Speed -    
Visibility 10 miles    
Events Rain    
Averages and records for this station are not official NWS values.
T = Trace of Precipitation, MM = Missing Value Source: NWS Daily Summary

Daily Weather History Graph

Daily Weather History Graph

Search for Another Location

Airport or City:

Astronomy

Oct. 19, 2019 Rise Set
Actual Time 7:35 AM CDT 6:38 PM CDT
Civil Twilight 7:08 AM CDT 7:05 PM CDT
Nautical Twilight 6:37 AM CDT 7:36 PM CDT
Astronomical Twilight 6:07 AM CDT 8:07 PM CDT
Moon 10:50 PM CDT (10/19) 1:07 PM CDT (10/19)
Length of Visible Light 11h 56m
Length of Day
11h 02m
Waning Gibbous, 69% of the Moon is Illuminated
Oct 19
Waning Gibbous
Oct 21
Last Quarter
Oct 27
New
Nov 4
First Quarter
Nov 12
Full

Hourly Weather History & Observations

Time (CDT) Temp. Dew Point Humidity Pressure Visibility Wind Dir Wind Speed Gust Speed Precip Events Conditions
12:53 AM 59.0 °F 48.0 °F 67% 29.74 in 10.0 mi West 6.9 mph - N/A   Scattered Clouds
1:53 AM 57.9 °F 48.9 °F 72% 29.72 in 10.0 mi South 5.8 mph - 0.00 in Rain Light Rain
2:53 AM 55.9 °F 50.0 °F 80% 29.71 in 10.0 mi SSE 6.9 mph - 0.01 in Rain Light Rain
3:53 AM 55.9 °F 51.1 °F 84% 29.72 in 6.0 mi South 10.4 mph - 0.04 in Rain Rain
4:53 AM 54.0 °F 51.1 °F 90% 29.69 in 10.0 mi SSE 6.9 mph - 0.03 in   Mostly Cloudy
5:53 AM 54.0 °F 51.1 °F 90% 29.70 in 10.0 mi SSE 4.6 mph - 0.01 in   Scattered Clouds
6:53 AM 54.0 °F 51.1 °F 90% 29.73 in 10.0 mi SSE 4.6 mph - N/A   Mostly Cloudy
7:53 AM 54.0 °F 51.1 °F 90% 29.75 in 10.0 mi SSW 4.6 mph - N/A   Overcast
8:53 AM 55.0 °F 52.0 °F 89% 29.76 in 10.0 mi SW 5.8 mph - N/A   Overcast
9:53 AM 55.9 °F 52.0 °F 87% 29.78 in 10.0 mi West 6.9 mph - N/A   Overcast
10:53 AM 57.9 °F 53.1 °F 84% 29.79 in 10.0 mi NW 11.5 mph - N/A   Overcast
11:53 AM 60.1 °F 53.1 °F 78% 29.80 in 10.0 mi NW 10.4 mph - N/A   Overcast
12:53 PM 64.0 °F 54.0 °F 70% 29.79 in 10.0 mi North 6.9 mph - N/A   Mostly Cloudy
1:35 PM 64.9 °F 53.1 °F 65% 29.80 in 10.0 mi North 8.1 mph - N/A   Mostly Cloudy
1:53 PM 66.0 °F 51.1 °F 59% 29.78 in 10.0 mi NNW 8.1 mph - N/A   Mostly Cloudy
2:53 PM 66.9 °F 48.0 °F 51% 29.78 in 10.0 mi North 9.2 mph - N/A   Clear
3:53 PM 66.9 °F 46.9 °F 49% 29.77 in 10.0 mi NNW 6.9 mph - N/A   Partly Cloudy
4:53 PM 68.0 °F 46.0 °F 45% 29.77 in 10.0 mi NNW 6.9 mph - N/A   Clear
5:53 PM 66.9 °F 46.9 °F 49% 29.77 in 10.0 mi Calm Calm - N/A   Clear
6:53 PM 59.0 °F 46.9 °F 64% 29.79 in 10.0 mi Calm Calm - N/A   Clear
7:53 PM 53.1 °F 46.9 °F 80% 29.80 in 10.0 mi Calm Calm - N/A   Clear
8:53 PM 48.0 °F 45.0 °F 89% 29.82 in 10.0 mi Calm Calm - N/A   Clear
9:53 PM 48.0 °F 44.1 °F 86% 29.83 in 10.0 mi Calm Calm - N/A   Clear
10:53 PM 45.0 °F 43.0 °F 93% 29.85 in 10.0 mi Calm Calm - N/A   Clear
11:53 PM 46.0 °F 43.0 °F 89% 29.84 in 10.0 mi Calm Calm - N/A   Clear